Location: Eaton Estates
(41.3089°N, 82.0057°W)
Time: 00:33:56
(UTC+00:00)

SL-16 R/B - Pass Details

Date: 17 June 2021
Orbit: 842 x 847 km, 71.0° (Epoch: 02 August)

Event Time Altitude Azimuth Distance (km) Brightness Sun altitude
Exits shadow 06:07:59 53° 241° (WSW) 1,036 2.4 -24.7°
Maximum altitude 06:09:10 67° 295° (WNW) 917 2.3 -24.6°
Drops below altitude 10° 06:14:49 10° 19° (NNE) 2,471 5.7 -24.4°
Sets 06:17:17 0° 22° (NNE) 3,409 6.7 -24.3°
